Sample Charts Sidebar
> Live data! Your data is on the web site for you to access within minutes
 
> Detailed data is easily downloaded as data file, which can be opened with Excel
 
> Charts can be customised if necessary
  Chart 1
 

(A maximum of 50 rows are displayed here. Use "Export Data" to see all rows in the date range.)
Date Collected Temperature
(Celcius)
Wind-chill
(Celcius)
Wind Speed
(km/hr)
Gust
(km/hr)
Wind Direction
(degrees)
2020-02-20 23:00 8.4 6.7 4 10 197
2020-02-20 22:00 7.5 5.8 4 13 187
2020-02-20 21:00 8.6 6.3 5 15 201
2020-02-20 20:00 8.8 1.5 11 28 199
2020-02-20 19:00 9.1 4.2 7 20 205
2020-02-20 18:00 8.6 7.8 2 13 216
2020-02-20 17:00 8.1 3.2 8 20 193
2020-02-20 16:00 8.7 6.3 5 15 264
2020-02-20 15:00 9.6 5.6 7 19 222
2020-02-20 14:00 9.7 2.6 10 25 207
2020-02-20 13:00 10.3 4.0 10 23 206
2020-02-20 12:00 10.6 6.2 7 15 208
2020-02-20 11:00 9.8 8.1 4 11 199
2020-02-20 10:00 9.6 9.2 2 8 200
2020-02-20 09:00 9.5 8.1 4 11 197
2020-02-20 08:00 9.7 9.0 3 10 222
2020-02-20 07:00 11.2 10.3 3 8 234
2020-02-20 06:00 12.8 12.2 3 10 345
2020-02-20 05:00 13.2 11.6 4 13 342
2020-02-20 04:00 13.0 12.3 3 10 356
2020-02-20 03:00 13.4 11.8 5 16 353
2020-02-20 02:00 14.4 11.4 6 20 348
2020-02-20 01:00 14.2 11.6 6 16 12
2020-02-20 00:00 14.2 12.1 5 15 350
2020-02-19 23:00 13.5 11.7 5 13 347
2020-02-19 22:00 13.6 12.9 3 8 1
2020-02-19 21:00 13.3 11.6 5 10 50
2020-02-19 20:00 14.1 12.8 4 13 20
2020-02-19 19:00 14.7 13.1 5 16 348
2020-02-19 18:00 15.3 13.8 4 14 359
2020-02-19 17:00 15.2 12.9 6 18 343
2020-02-19 16:00 15.5 13.5 5 16 336
2020-02-19 15:00 16.3 12.9 7 25 345
2020-02-19 14:00 16.8 13.9 7 20 21
2020-02-19 13:00 16.3 12.9 7 19 3
2020-02-19 12:00 15.8 13.2 6 16 19
2020-02-19 11:00 15.2 12.1 7 15 16
2020-02-19 10:00 12.1 9.1 5 16 31
2020-02-19 09:00 8.4 6.5 4 8 61
2020-02-19 08:00 6.5 4.1 5 9 57
2020-02-19 07:00 5.5 3.3 4 8 44
2020-02-19 06:00 4.4 1.4 5 10 56
2020-02-19 05:00 4.0 1.2 5 11 48
2020-02-19 04:00 4.0 1.4 5 10 56
2020-02-19 03:00 3.5 1.1 5 11 56
2020-02-19 02:00 4.0 1.8 4 9 50
2020-02-19 01:00 4.2 1.8 5 10 51
2020-02-19 00:00 4.6 3.1 4 8 49
2020-02-18 23:00 5.0 4.3 3 6 52
2020-02-18 22:00 5.2 5.1 2 6 43